Location: Rio Tanui
(39.9167°N, 8.5167°E)
Time: 04:01:11
(UTC+00:00)

Lacrosse 5 - Pass Details

Date: 08 February 2023
Orbit: 714 x 724 km, 57.0° (Epoch: 09 March)

Event Time Altitude Azimuth Distance (km) Brightness Sun altitude
Rises 17:26:17 0° 268° (W) 3,130 7.3 -6.9°
Reaches altitude 10° 17:29:13 10° 284° (WNW) 2,213 5.5 -7.5°
Maximum altitude 17:33:03 21° 333° (NNW) 1,594 3.8 -8.2°
Drops below altitude 10° 17:36:55 10° 22° (NNE) 2,220 4.1 -8.9°
Enters shadow 17:39:02 - 35° (NE) 2,863 4.5 -9.3°
